Tracking 23757 objects as of 26-Oct-2021
HD Live streaming from Space Station
objects crossing your sky now

IRIDIUM 33 DEB

Track IRIDIUM 33 DEB now!
10-day predictions


NORAD ID: 34106
Int'l Code: 1997-051DR
Perigee: 709.1 km
Apogee: 734.9 km
Inclination: 86.4 °
Period: 99.1 minutes
Semi major axis: 7093 km
RCS: 0.065 m2 (small)
Launch date: September 14, 1997
Source: United States (US)
Launch site: TYURATAM MISSILE AND SPACE COMPLEX (TTMTR)

Note: This is SATELLITE DEBRIS
aabbcc
Your satellite tracking list
Your tracking list is empty




NASA's NSSDC Master Catalog

Two Line Element Set (TLE):
1 34106U 97051DR  21298.98886271  .00001910  00000-0  45426-3 0  9992
2 34106  86.3581 290.2058 0018207  35.1170  17.9361 14.53302414669867
Source of the keplerian elements: AFSPC